{"data":{"norad_id":44408,"epoch":"2026-05-25T02:28:35.829408Z","epoch_age_seconds":62059,"freshness":"FRESH","line1":"1 44408U 19038Y   26145.10319247  .00041206  00000+0  42789-3 0  9991","line2":"2 44408  97.6778 188.4108 0009792 102.2108 258.0247 15.64476898382949","mean_motion":15.64476898,"eccentricity":0.0009792,"inclination_deg":97.6778,"raan_deg":188.4108,"arg_perigee_deg":102.2108,"mean_anomaly_deg":258.0247,"bstar":0.00042789,"rev_number":38294,"period_min":92.043545151793,"perigee_km":368.13119163053,"apogee_km":381.35603302171,"semimajor_km":6752.8806123261,"source":"CELESTRAK","updated_at":"2026-05-25T13:37:55.972555Z"}}